Flag for Germany Weather past 2 weeks in Pirna, Saxony, Germany

Now
57 °F

Light rain. Overcast.


Feels Like: 57 °F
Forecast: 53 / 61 °F
Wind: 1 mph from Southeast

Location: Dresden-Klotzsche

Current Time: Sep 2, 2014 at 12:24:15 AM

Latest Report: Sep 2, 2014 at 12:00 AM


Visibility: 5 mi

Pressure: 30.09 "Hg

Humidity: 93%

Dew point: 55 °F

Location of PirnaLocation

Historic Weather in Pirna — Graph

°F

Pirna temperature yesterday

Maximum temperature yesterday: 60 °F (at 6:00 PM)
Minimum temperature yesterday: 54 °F (at 7:00 AM)
Average temperature yesterday: 57 °F

Past Weeks' High & Low Weather Summary

 TemperatureHumidityPressure
High73 °F (Aug 29, 1:00 PM)98% (Aug 27, 7:00 AM)30.11 "Hg (Aug 27, 7:00 AM)
Low46 °F (Aug 25, 4:00 AM)33% (Aug 28, 3:00 PM)29.72 "Hg (Aug 18, 10:00 AM)
Average59 °F72%29.95 "Hg
* Reported Aug 17 10:00 PM — Sep 1 10:00 PM, Pirna, Weather by CustomWeather, © 2014

Note: Actual official high and low records may vary slightly from our data, if they occured in-between our weather recording intervals... More about our weather records

Advertising

Pirna weather history for previous 24 hours

 ConditionsComfort  
Time TempWeatherWind HumidityBarometerVisibility
10:00 PM
Sep 1
58 °FLight rain. Overcast.No wind89%30.09 "Hg7 mi
9:00 PM58 °FLight rain. Overcast.1 mph88%30.09 "Hg10 mi
8:00 PM58 °FLight rain. Overcast.1 mph87%30.08 "Hg11 mi
7:00 PM59 °FLight rain. Overcast.1 mph85%30.07 "Hg11 mi
6:00 PM60 °FOvercast.2 mph79%30.07 "Hg16 mi
4:00 PM59 °FOvercast.5 mph85%30.06 "Hg12 mi
3:00 PM59 °FLight rain. Low clouds.3 mph85%30.07 "Hg9 mi
2:00 PM58 °FLow clouds.5 mph87%30.07 "Hg8 mi
1:00 PM57 °FLow clouds.5 mph88%30.06 "Hg7 mi
12:00 PM57 °FLow clouds.5 mph88%30.05 "Hg7 mi
11:00 AM56 °FLow clouds.3 mph91%30.05 "Hg6 mi
10:00 AM55 °FLow clouds.5 mph94%30.03 "Hg5 mi
9:00 AM55 °FLow clouds.3 mph94%30.02 "Hg6 mi
8:00 AM55 °FLow clouds.2 mph94%30.01 "Hg5 mi
7:00 AM54 °FFog.3 mph94%29.99 "Hg4 mi
6:00 AM55 °FFog.3 mph95%29.98 "Hg4 mi
4:00 AM55 °FLight rain. Overcast.2 mph93%29.96 "Hg11 mi
3:00 AM56 °FOvercast.2 mph91%29.95 "Hg16 mi
2:00 AM55 °FOvercast.2 mph89%29.94 "Hg19 mi
1:00 AM56 °FOvercast.2 mph87%29.94 "Hg19 mi
12:00 AM57 °FLight rain. Overcast.2 mph88%29.93 "Hg12 mi
Weather by CustomWeather, © 2014

See weather overviewHow to use our weather pages